This is the latest recevied weather packets stored in our database for station/object KJ5JYX. If no packets are shown the sender has not sent any weather packets the latest 10 day(s).
| Time | Temp. | Humidity | Pressure | Rain* | Wind** | Luminosity | Snow |
|---|---|---|---|---|---|---|---|
| 1777897393 | 16.11° C | 88% | 1015.5 hPa | 0 mm | - | 26 W/m² | - |
| 1777897089 | 16.11° C | 88% | 1015.4 hPa | 0 mm | - | 21 W/m² | - |
| 1777896786 | 16.11° C | 88% | 1015.5 hPa | 0 mm | - | 12 W/m² | - |
| 1777896483 | 16.11° C | 88% | 1015.2 hPa | 0 mm | - | 8 W/m² | - |
| 1777895273 | 16.11° C | 87% | 1015 hPa | 0 mm | - | 2 W/m² | - |
| 1777894667 | 16.11° C | 88% | 1015 hPa | 0 mm | - | 0 W/m² | - |
| 1777894364 | 16.11° C | 88% | 1014.7 hPa | 0 mm | - | 0 W/m² | - |
| 1777894062 | 16.11° C | 87% | 1015.1 hPa | 0 mm | - | 0 W/m² | - |
| 1777893758 | 16.11° C | 87% | 1014.9 hPa | 0 mm | - | 0 W/m² | - |
| 1777893455 | 16.11° C | 87% | 1015 hPa | 0 mm | - | 0 W/m² | - |
| 1777893151 | 16.11° C | 87% | 1015.2 hPa | 0 mm | - | 0 W/m² | - |
| 1777892848 | 16.11° C | 87% | 1015.1 hPa | 0 mm | - | 0 W/m² | - |
| 1777892544 | 16.11° C | 87% | 1014.9 hPa | 0 mm | - | 0 W/m² | - |
| 1777890725 | 16.11° C | 86% | 1015.5 hPa | 0 mm | - | 0 W/m² | - |
| 1777890421 | 16.11° C | 86% | 1015.7 hPa | 0 mm | - | 0 W/m² | - |
| 1777890117 | 16.11° C | 85% | 1015.7 hPa | 0 mm | - | 0 W/m² | - |
| 1777889815 | 16.11° C | 85% | 1015.7 hPa | 0 mm | - | 0 W/m² | - |
| 1777889512 | 16.11° C | 85% | 1015.9 hPa | 0 mm | - | 0 W/m² | - |
| 1777889209 | 16.11° C | 86% | 1015.7 hPa | 0 mm | - | 0 W/m² | - |
| 1777888908 | 16.11° C | 86% | 1015.7 hPa | 0 mm | - | 0 W/m² | - |
| 1777888604 | 16.11° C | 86% | 1015.8 hPa | 0 mm | - | 0 W/m² | - |
| 1777887997 | 16.11° C | 86% | 1015.5 hPa | 0 mm | - | 0 W/m² | - |
| 1777887391 | 16.11° C | 85% | 1015.8 hPa | 0 mm | - | 0 W/m² | - |
| 1777887086 | 16.11° C | 84% | 1015.9 hPa | 0 mm | - | 0 W/m² | - |
| 1777886782 | 16.67° C | 83% | 1015.9 hPa | 0 mm | - | 0 W/m² | - |
* Rain latest hour (hover to see other rain measurements)
** Current wind speed in m/s (hover to see current wind gust speed)